AUA47 FIMP-LOWW

Flight info

Callsign AUA47
Flight time N/A
Altitude 34000
Route OKMAR2C OKMAR UT665 AMBOD UA665 TSARA DCT DENLI/N0487F350 UN304 APKAK/N0482F360 UN304 DWA DCT XADOX DCT KONET/N0476F370 UG650 RASKA/N0473F380 T513 EGMEG/N0472F370 G660 JDW/N0472F380 L677 CVO L617 NOZ L551 ANTAR UN133 RIGRO/N0470F400 UN133 PEREN UL863 EVIVI L863 EDIKA DCT OKANA DCT ESIRI DCT PARAK DCT BALUX DCT TORNO DCT NATEX NATEX2W
Aircraft B772/H-SDE2E3FGHIJ5LORVWXY/LB1D1

Departure

Time 2026-05-08 21:33
Airport Sir Seewoosagur Ramgoolam International Airport (FIMP)

Arrival

Time N/A
Airport Vienna International Airport (LOWW)
Time Latitude Longitude Altitude Speed Heading
2026-05-08 20:53 -20.43166 57.67850 191 ft 0 kts 212°
2026-05-08 21:20 -20.43145 57.67864 206 ft 4 kts 212°
2026-05-08 21:21 -20.43125 57.67877 206 ft 3 kts 212°
2026-05-08 21:21 -20.43105 57.67894 206 ft 4 kts 239°
2026-05-08 21:21 -20.43099 57.67919 206 ft 4 kts 287°
2026-05-08 21:21 -20.43112 57.67944 206 ft 4 kts 309°
2026-05-08 21:22 -20.43120 57.67954 206 ft 0 kts 308°
2026-05-08 21:26 -20.43110 57.67940 206 ft 8 kts 306°
2026-05-08 21:26 -20.43081 57.67887 199 ft 8 kts 300°
2026-05-08 21:27 -20.43054 57.67844 199 ft 7 kts 314°
2026-05-08 21:27 -20.43012 57.67833 198 ft 7 kts 11°
2026-05-08 21:27 -20.42969 57.67823 206 ft 7 kts 320°
2026-05-08 21:27 -20.42943 57.67783 204 ft 7 kts 297°
2026-05-08 21:28 -20.42922 57.67740 206 ft 7 kts 297°
2026-05-08 21:28 -20.42901 57.67696 206 ft 7 kts 297°
2026-05-08 21:28 -20.42880 57.67652 206 ft 7 kts 297°
2026-05-08 21:28 -20.42858 57.67609 199 ft 7 kts 300°
2026-05-08 21:29 -20.42829 57.67571 199 ft 7 kts 316°
2026-05-08 21:29 -20.42793 57.67540 203 ft 7 kts 321°
2026-05-08 21:29 -20.42766 57.67517 206 ft 0 kts 321°
2026-05-08 21:30 -20.42761 57.67513 203 ft 6 kts 321°
2026-05-08 21:30 -20.42735 57.67494 202 ft 11 kts 331°
2026-05-08 21:30 -20.42631 57.67455 205 ft 17 kts 341°
2026-05-08 21:31 -20.42551 57.67371 210 ft 17 kts 297°
2026-05-08 21:31 -20.42497 57.67260 212 ft 17 kts 297°
2026-05-08 21:31 -20.42445 57.67150 218 ft 17 kts 295°
2026-05-08 21:31 -20.42433 57.67028 217 ft 17 kts 268°
2026-05-08 21:32 -20.42408 57.66927 218 ft 8 kts 307°
2026-05-08 21:32 -20.42361 57.66929 219 ft 8 kts 47°
2026-05-08 21:32 -20.42363 57.66981 222 ft 7 kts 115°
2026-05-08 21:32 -20.42390 57.67039 218 ft 18 kts 116°
2026-05-08 21:33 -20.42537 57.67343 210 ft 82 kts 117°
2026-05-08 21:33 -20.42904 57.68104 199 ft 147 kts 117°
2026-05-08 21:33 -20.43436 57.69212 325 ft 183 kts 117°
2026-05-08 21:33 -20.44011 57.70414 1075 ft 177 kts 115°
2026-05-08 21:34 -20.44560 57.71553 1910 ft 177 kts 116°
2026-05-08 21:34 -20.45169 57.72807 2127 ft 199 kts 116°
2026-05-08 21:34 -20.45825 57.74170 2361 ft 216 kts 115°
2026-05-08 21:34 -20.46172 57.75735 2641 ft 228 kts 85°
2026-05-08 21:35 -20.45582 57.77359 2863 ft 248 kts 50°
2026-05-08 21:35 -20.44203 57.78509 3359 ft 259 kts 33°
2026-05-08 21:35 -20.42597 57.79411 3951 ft 261 kts 29°
2026-05-08 21:35 -20.40961 57.80269 4548 ft 264 kts 29°
2026-05-08 21:36 -20.39295 57.81139 5151 ft 267 kts 30°
2026-05-08 21:36 -20.37626 57.82020 5782 ft 267 kts 30°
2026-05-08 21:36 -20.35960 57.82910 6388 ft 269 kts 31°
2026-05-08 21:36 -20.34291 57.83811 6929 ft 271 kts 31°
2026-05-08 21:37 -20.32588 57.84736 7401 ft 276 kts 30°
2026-05-08 21:37 -20.30892 57.85658 7884 ft 279 kts 30°
2026-05-08 21:37 -20.29150 57.86603 8375 ft 283 kts 29°
2026-05-08 21:37 -20.27382 57.87555 8832 ft 287 kts 29°
2026-05-08 21:38 -20.25589 57.88518 9318 ft 290 kts 29°
2026-05-08 21:38 -20.23783 57.89489 9810 ft 293 kts 30°
2026-05-08 21:38 -20.21900 57.90346 10147 ft 298 kts 14°
2026-05-08 21:38 -20.19795 57.90307 10282 ft 315 kts 344°
2026-05-08 21:39 -20.17871 57.89117 10379 ft 331 kts 315°
2026-05-08 21:39 -20.16361 57.87224 10466 ft 342 kts 309°
2026-05-08 21:39 -20.14831 57.85206 10608 ft 357 kts 309°
2026-05-08 21:39 -20.13256 57.83142 10847 ft 371 kts 310°
2026-05-08 21:40 -20.11585 57.80968 11293 ft 377 kts 310°
2026-05-08 21:40 -20.09913 57.78805 11925 ft 379 kts 310°
2026-05-08 21:40 -20.08253 57.76669 12577 ft 381 kts 310°
2026-05-08 21:41 -20.04794 57.72238 13751 ft 389 kts 310°
2026-05-08 21:41 -20.03072 57.70036 14314 ft 393 kts 310°
2026-05-08 21:41 -20.01312 57.67786 14790 ft 399 kts 310°
2026-05-08 21:41 -19.99538 57.65518 15417 ft 399 kts 309°
2026-05-08 21:42 -19.97762 57.63249 16093 ft 398 kts 309°
2026-05-08 21:42 -19.95979 57.60973 16612 ft 402 kts 309°
2026-05-08 21:42 -19.94191 57.58689 17238 ft 401 kts 309°
2026-05-08 21:42 -19.93012 57.57184 17663 ft 401 kts 309°
2026-05-08 21:43 -19.91218 57.54893 18150 ft 405 kts 309°
2026-05-08 21:43 -19.89397 57.52571 18531 ft 410 kts 309°
2026-05-08 21:43 -19.87568 57.50244 19023 ft 411 kts 310°
2026-05-08 21:43 -19.85560 57.48083 19386 ft 414 kts 318°
2026-05-08 21:44 -19.83317 57.46125 19777 ft 417 kts 322°
2026-05-08 21:44 -19.81008 57.44247 20245 ft 418 kts 322°
2026-05-08 21:44 -19.78694 57.42370 20665 ft 420 kts 322°
2026-05-08 21:44 -19.76379 57.40459 21024 ft 424 kts 321°
2026-05-08 21:45 -19.74085 57.38527 21361 ft 427 kts 321°
2026-05-08 21:45 -19.71763 57.36547 21744 ft 429 kts 321°
2026-05-08 21:45 -19.69441 57.34552 22152 ft 430 kts 321°
2026-05-08 21:45 -19.67107 57.32542 22524 ft 433 kts 321°
2026-05-08 21:46 -19.64763 57.30524 22850 ft 436 kts 321°
2026-05-08 21:46 -19.62404 57.28495 23162 ft 439 kts 321°
2026-05-08 21:46 -19.60019 57.26444 23514 ft 441 kts 321°
2026-05-08 21:46 -19.57626 57.24389 23835 ft 442 kts 321°
2026-05-08 21:47 -19.55232 57.22335 24130 ft 444 kts 321°
2026-05-08 21:47 -19.52829 57.20275 24428 ft 445 kts 321°
2026-05-08 21:47 -19.50435 57.18223 24703 ft 447 kts 321°
2026-05-08 21:47 -19.48012 57.16147 24999 ft 449 kts 321°
2026-05-08 21:48 -19.45579 57.14064 25293 ft 450 kts 321°
2026-05-08 21:48 -19.43138 57.11973 25567 ft 452 kts 321°
2026-05-08 21:48 -19.40685 57.09873 25847 ft 454 kts 321°
2026-05-08 21:48 -19.38221 57.07764 26113 ft 456 kts 320°
2026-05-08 21:49 -19.35749 57.05648 26403 ft 457 kts 321°
2026-05-08 21:49 -19.33267 57.03526 26692 ft 459 kts 320°
2026-05-08 21:49 -19.30777 57.01397 26989 ft 460 kts 320°
2026-05-08 21:49 -19.28281 56.99264 27276 ft 462 kts 320°
2026-05-08 21:50 -19.25778 56.97125 27568 ft 463 kts 320°
2026-05-08 21:50 -19.23262 56.94977 27848 ft 465 kts 320°
2026-05-08 21:50 -19.20762 56.92843 28102 ft 467 kts 320°
2026-05-08 21:50 -19.18228 56.90682 28349 ft 469 kts 320°
2026-05-08 21:51 -19.15678 56.88506 28631 ft 471 kts 320°
2026-05-08 21:51 -19.13110 56.86318 28899 ft 473 kts 320°
2026-05-08 21:51 -19.10548 56.84134 29123 ft 475 kts 320°
2026-05-08 21:51 -19.07969 56.81937 29439 ft 475 kts 320°
2026-05-08 21:52 -19.05392 56.79744 29687 ft 477 kts 319°
2026-05-08 21:52 -19.02805 56.77541 29919 ft 479 kts 319°
2026-05-08 21:52 -19.00207 56.75331 30169 ft 481 kts 320°
2026-05-08 21:52 -18.97599 56.73113 30398 ft 481 kts 320°
2026-05-08 21:53 -18.95018 56.70919 30686 ft 480 kts 319°
2026-05-08 21:53 -18.92415 56.68707 30975 ft 480 kts 320°
2026-05-08 21:53 -18.89814 56.66498 31215 ft 480 kts 320°
2026-05-08 21:53 -18.87207 56.64285 31504 ft 479 kts 320°
2026-05-08 21:54 -18.84577 56.62055 31795 ft 479 kts 320°
2026-05-08 21:54 -18.82021 56.59886 32138 ft 477 kts 319°
2026-05-08 21:54 -18.79424 56.57684 32325 ft 479 kts 320°
2026-05-08 21:54 -18.76823 56.55477 32460 ft 481 kts 320°
2026-05-08 21:55 -18.74204 56.53259 32645 ft 482 kts 319°
2026-05-08 21:55 -18.71595 56.51050 32899 ft 481 kts 320°
2026-05-08 21:55 -18.68988 56.48845 33199 ft 479 kts 320°
2026-05-08 21:56 -18.63785 56.44442 33586 ft 482 kts 320°
2026-05-08 21:56 -18.61177 56.42237 33925 ft 478 kts 320°
2026-05-08 21:56 -18.58594 56.40055 34073 ft 470 kts 320°
2026-05-08 21:57 -18.53561 56.35808 34077 ft 464 kts 319°
2026-05-08 21:57 -18.48491 56.31525 34080 ft 469 kts 320°
2026-05-08 21:58 -18.43415 56.27241 34073 ft 473 kts 319°
2026-05-08 21:58 -18.38251 56.22889 34084 ft 476 kts 319°
2026-05-08 21:59 -18.33092 56.18547 34072 ft 471 kts 320°
2026-05-08 21:59 -18.27994 56.14255 34067 ft 468 kts 320°
2026-05-08 22:00 -18.22901 56.09972 34081 ft 469 kts 320°
2026-05-08 22:00 -18.17700 56.05764 34088 ft 474 kts 324°
2026-05-08 22:01 -18.12179 56.01911 34085 ft 477 kts 325°
2026-05-08 22:01 -18.06599 55.98106 34069 ft 476 kts 325°
2026-05-08 22:02 -18.01096 55.94291 34070 ft 472 kts 324°
2026-05-08 22:02 -17.95649 55.90472 34067 ft 471 kts 325°